TimeCST,TemperatureF,Dew PointF,Humidity,Sea Level PressureIn,VisibilityMPH,Wind Direction,Wind SpeedMPH,Gust SpeedMPH,PrecipitationIn,Events,Conditions,WindDirDegrees,DateUTC
12:52 AM,32.0,21.0,64,30.29,10.0,South,11.5,-,N/A,,Clear,180,2013-01-07 06:52:00
1:52 AM,30.0,19.9,66,30.28,10.0,South,6.9,-,N/A,,Clear,180,2013-01-07 07:52:00
2:52 AM,26.1,19.0,75,30.27,10.0,SE,5.8,-,N/A,,Clear,140,2013-01-07 08:52:00
3:52 AM,24.1,18.0,77,30.26,10.0,SE,3.5,-,N/A,,Clear,140,2013-01-07 09:52:00
4:52 AM,27.0,19.0,72,30.25,10.0,South,8.1,-,N/A,,Clear,180,2013-01-07 10:52:00
5:52 AM,30.0,21.0,69,30.24,10.0,South,10.4,-,N/A,,Clear,190,2013-01-07 11:52:00
6:52 AM,30.0,21.0,69,30.24,10.0,South,10.4,-,N/A,,Clear,180,2013-01-07 12:52:00
7:52 AM,30.0,21.0,69,30.25,10.0,South,10.4,-,N/A,,Clear,190,2013-01-07 13:52:00
8:52 AM,32.0,23.0,69,30.24,10.0,South,9.2,-,N/A,,Clear,170,2013-01-07 14:52:00
9:52 AM,37.9,23.0,55,30.23,10.0,South,13.8,-,N/A,,Clear,180,2013-01-07 15:52:00
10:52 AM,41.0,23.0,49,30.23,10.0,South,12.7,-,N/A,,Clear,190,2013-01-07 16:52:00
11:52 AM,46.9,24.1,41,30.17,10.0,South,13.8,20.7,N/A,,Clear,190,2013-01-07 17:52:00
12:52 PM,50.0,24.1,36,30.13,10.0,SSW,16.1,27.6,N/A,,Clear,210,2013-01-07 18:52:00
1:52 PM,50.0,24.1,36,30.12,10.0,SSW,17.3,23.0,N/A,,Clear,200,2013-01-07 19:52:00
2:52 PM,48.9,25.0,39,30.11,10.0,SSW,11.5,-,N/A,,Clear,200,2013-01-07 20:52:00
3:52 PM,46.9,25.0,42,30.09,10.0,South,10.4,-,N/A,,Clear,180,2013-01-07 21:52:00
4:52 PM,44.1,26.1,49,30.08,10.0,SSE,10.4,-,N/A,,Clear,160,2013-01-07 22:52:00
5:52 PM,42.1,25.0,51,30.08,10.0,SSE,10.4,-,N/A,,Clear,160,2013-01-07 23:52:00
6:52 PM,39.9,26.1,58,30.08,10.0,SSE,6.9,-,N/A,,Clear,160,2013-01-08 00:52:00
7:52 PM,41.0,26.1,55,30.06,10.0,South,10.4,-,N/A,,Clear,180,2013-01-08 01:52:00
8:52 PM,39.9,27.0,60,30.06,10.0,South,6.9,-,N/A,,Clear,190,2013-01-08 02:52:00
9:52 PM,39.9,27.0,60,30.06,10.0,South,8.1,-,N/A,,Clear,180,2013-01-08 03:52:00
10:52 PM,35.1,26.1,70,30.05,10.0,SE,6.9,-,N/A,,Clear,130,2013-01-08 04:52:00
11:52 PM,35.1,27.0,72,30.05,10.0,ESE,5.8,-,N/A,,Clear,120,2013-01-08 05:52:00